ARIANE 44LP DEB, 25928

Orbit data source: Space-Track

ARIANE 44LP DEB, 25928 is space debris in HEO originally from a launch on Sat, 02 Mar 1991 UTC launched from the French Guiana (FRGUI). Debris objects in space refer to the collection of defunct objects orbiting the Earth. Examples of debris include non-operational satellites, rocket bodies, and fragments generated from explosions, collisions, or faulty payload assembly.

Loading next visibility...
Identifier
25928, 1991-015J
Orbit
HEO
Country
Flag of FRFR
Related business
Manufacturer
Unknown
Mission
Spacecraft
Bus & Motor
Unknown
Mass
Unknown
Launch date (UTC)
1991-03-02 (35 years ago)
Launch vehicle
Unknown
Launch site
French Guiana (FRGUI)
Object type
Payload
Rocket body
Debris
Shape & HBR
Unknown shape, 0.6 m
Radar Cross Section
Medium (>0.1 m² and <1 m²)

Expand to show TLE details & history
Last TLE update: 2 days ago

TLE from 2 days ago
0 ARIANE 44LP DEB
1 25928U 91015J   26171.27064662 -.00000279  00000-0 -21597-2 0  9998
2 25928   7.8033 273.4888 6619587  92.4388 279.7308  2.92260271299260
Epoch: 2026-06-20T06:29Z
TLE epoch observation values (Epoch: 2026-06-20T06:29:43.867Z)
Latitude
-6.43074°
Longitude
-147.47003°
Altitude
19,998.388 km
Speed
3.307 km/s
True Right ascension
14h 33m 48s
True Declination
-6° 25' 14"
Sunlit
Object was in daylight at epoch
Visualization orbit readout
Latitude
Unknown
Longitude
Unknown
Altitude
Unknown
Speed
Unknown
Apparent Right ascension
Unknown
Apparent Declination
Unknown
Sunlit
N/A
Visualization observer readout
Local Sidereal Time
23:18:18
Azimuth
Unknown
Elevation
Unknown
Doppler factor
Unknown
Orbital elements
Apogee altitude
27,973.379 km
Perigee altitude
608.939 km
Semi-major axis
20,669.296 km
Eccentricity
0.66196
Inclination
7.8033°
RAAN
273.4888°
Arg. of periapsis
92.4388°
True anomaly
212.22427°
Mean anomaly
279.7308°
Eccentric anomaly
245.27917°
Mean motion
0.73039 °/min
Orbital period
492.89 mins
BSTAR
-0.0021597
Loading maneuver chart data...
Computing Atmospheric mass density...

Documentation

Showing up to 5 results
|